Temperature
18 18 18 18 18 18 17 17 17 17 17 17 17 17 17 17 17 17 17 17 17 17 17 17 17 17 17 17 17 17 16 16 16 16 16 16 16 16 16 16 16 16 16
18 18 17 17 17 17 17 17 17 17 17 17 17 17 17 17 17 17 17 17 17 17 17 17 17 17 17 17 17 16 16 16 16 16 16 16 16 16 16 16 16 16 16
18 18 18 18 17 17 17 17 17 17 17 17 17 17 17 17 17 17 17 17 17 17 17 17 17 17 17 16 16 16 16 16 16 16 16 16 16 16 16 16 16 16 16
18 18 18 18 17 17 17 17 17 17 17 17 17 17 17 17 17 17 17 17 17 17 17 17 17 17 17 17 17 16 16 16 16 16 16 16 16 16 16 16 16 16 16
18 18 18 17 17 17 17 17 17 17 17 17 17 17 17 17 17 17 17 17 17 17 17 17 17 17 17 17 17 16 16 16 16 16 16 16 16 16 16 16 16 16 15
18 17 18 17 17 17 17 17 17 17 17 17 17 17 17 17 17 17 17 17 17 17 17 17 17 17 17 17 17 16 16 16 16 16 16 16 16 16 16 16 16 16 15
18 17 18 18 17 17 17 17 17 17 17 17 17 17 17 17 17 17 17 17 17 17 17 17 17 17 17 17 16 16 16 16 16 16 16 16 16 16 16 16 16 16 15
18 18 18 18 18 17 17 17 17 17 17 17 17 17 17 17 17 17 17 17 17 17 17 17 17 17 17 17 16 16 16 16 16 16 16 16 16 16 16 16 16 15 15
18 18 18 18 18 18 18 17 17 17 17 17 17 17 17 17 17 17 17 17 17 17 17 17 17 17 17 17 16 16 16 16 16 16 16 16 16 16 16 15 15 15 15
18 18 18 18 18 18 18 17 17 17 17 17 17 17 17 17 17 16 17 17 17 17 17 16 16 17 17 17 16 16 16 16 16 16 16 16 16 15 15 15 15 15 15
18 18 18 18 18 18 18 18 17 17 17 17 17 17 17 17 17 16 16 17 17 17 17 16 16 16 16 16 16 16 16 16 16 16 16 16 15 15 15 15 15 15 15
18 18 18 18 18 18 18 18 17 17 17 17 17 17 17 17 17 17 16 16 16 17 16 16 16 16 16 16 16 16 16 16 16 16 16 15 15 15 15 15 15 15 15
18 18 18 18 18 18 18 17 17 17 17 17 17 17 17 17 17 16 16 16 16 16 16 16 16 16 16 16 16 16 16 16 15 15 15 15 15 15 15 15 15 15 14
19 18 18 18 18 18 17 17 17 17 17 17 17 17 17 17 16 16 16 16 16 16 16 16 16 16 15 16 15 15 15 15 15 15 15 15 15 15 15 15 15 14 14
19 18 18 18 18 18 18 17 17 17 17 17 17 17 16 16 16 16 16 16 16 15 15 15 15 15 15 15 15 15 15 15 15 15 15 15 14 14 14 14 14 14 14
19 18 18 18 18 18 17 17 17 17 17 17 17 17 16 16 16 16 16 16 15 15 15 15 15 15 15 15 15 15 15 15 15 14 14 14 14 14 14 14 14 14 14
19 18 18 18 18 17 17 17 17 17 17 17 17 16 16 16 16 16 16 16 15 15 15 15 15 15 14 14 14 14 14 14 14 14 14 14 14 14 14 14 13 13 13
19 18 18 18 18 17 17 17 17 17 17 17 17 16 16 16 16 16 16 15 15 15 15 15 14 14 14 14 14 14 14 14 14 14 14 13 13 13 13 13 13 13 13
19 18 18 18 18 17 17 17 17 17 17 17 16 16 16 16 16 16 16 15 15 15 14 14 14 14 14 14 14 13 13 13 13 13 13 13 13 13 13 12 12 12 12
19 18 18 18 18 17 17 17 17 17 17 17 16 16 16 16 16 16 15 15 15 15 14 14 14 14 13 13 13 13 13 13 13 13 13 13 12 12 12 12 12 12 12
18 18 18 18 18 17 17 17 17 16 16 16 16 16 16 16 16 15 15 15 15 14 14 14 14 13 13 13 13 13 13 12 12 12 12 12 12 12 12 12 11 11 11
18 18 18 18 18 17 17 17 17 16 16 16 16 16 16 15 15 15 15 15 14 14 14 14 14 13 13 13 13 13 12 12 12 12 12 11 11 11 11 11 11 11 11
18 18 18 17 17 17 17 16 16 16 16 16 16 15 15 15 15 15 15 14 14 14 14 13 13 13 13 13 12 12 12 12 12 11 11 11 11 11 11 10 10 10 10
18 18 18 17 17 17 17 16 16 16 16 16 15 15 15 15 15 14 14 14 14 14 13 13 13 13 13 12 12 12 12 11 11 11 11 11 11 10 10 10 10 10 9
18 17 17 17 17 17 16 16 16 16 16 15 15 15 15 15 14 14 14 14 13 13 13 13 13 12 12 12 12 12 11 11 11 11 10 10 10 10 10 10 10 9 9
17 17 17 17 16 16 16 16 15 15 15 15 15 15 14 14 14 14 13 13 13 13 12 12 12 12 12 12 11 11 11 11 11 10 10 10 10 10 9 9 9 9 9
Wind_Speed
2 2 1 1 1 2 2 2 2 2 1 1 1 2 3 4 4 4 5 7 8 9 9 10 10 11 11 11 11 11 11 11 10 10 10 10 10 10 10 10 9 9 9
3 2 1 1 1 2 2 2 1 1 1 1 1 1 2 3 4 4 5 6 7 9 9 10 10 11 11 12 12 11 11 11 11 11 11 11 11 11 11 11 10 10 10
5 3 2 1 2 2 2 1 1 1 0 1 1 1 1 3 4 4 5 5 6 8 9 10 10 11 11 12 12 12 12 12 12 12 11 11 11 11 11 11 12 12 12
6 4 3 2 3 3 2 1 1 1 0 1 0 0 1 2 3 4 4 5 5 6 7 9 10 11 11 11 12 13 13 13 13 13 13 13 13 13 13 13 13 13 13
7 5 3 3 3 3 2 2 2 2 1 1 1 1 1 2 2 3 4 5 5 6 7 8 9 10 10 10 11 11 12 13 13 13 14 14 14 14 14 14 14 14 14
7 6 4 4 4 2 2 2 2 2 2 1 0 1 1 2 1 2 3 4 5 6 6 6 7 7 9 9 10 11 12 12 12 13 13 14 14 14 14 14 14 13 13
6 5 3 3 3 3 3 3 2 2 1 2 1 1 2 1 1 1 2 2 3 4 5 6 6 5 6 8 10 11 11 12 12 12 13 14 14 14 15 14 14 14 14
6 5 4 4 4 3 3 3 3 2 2 2 2 1 1 2 1 1 1 2 3 3 4 5 6 6 6 6 7 9 10 10 10 10 11 12 12 13 14 15 15 16 16
6 5 5 5 4 4 4 4 5 4 3 2 2 3 2 2 1 1 1 1 2 2 3 4 5 6 6 6 7 8 9 10 10 11 11 12 12 13 13 14 14 15 15
5 5 5 5 5 4 4 5 4 4 4 3 2 2 2 3 2 1 1 1 2 2 3 3 4 5 6 6 6 7 8 9 10 10 11 11 12 13 13 14 13 13 14
3 5 5 5 4 4 5 5 4 4 4 4 3 2 2 2 2 2 3 2 1 2 2 3 3 3 4 5 5 6 7 8 8 8 9 10 10 11 11 12 12 13 13
2 3 4 4 4 4 5 5 5 5 4 4 4 3 3 3 3 3 3 3 3 2 2 2 2 2 3 4 5 6 6 6 6 5 5 6 7 7 8 9 10 10 10
2 3 3 3 3 4 4 4 4 4 4 5 5 4 4 4 3 3 3 2 2 1 1 1 2 1 1 2 2 3 4 3 3 3 3 3 3 4 4 5 5 5 6
4 3 4 4 4 4 4 4 3 4 4 4 5 4 4 4 4 4 3 3 2 2 1 2 1 1 1 1 1 2 2 2 2 2 2 2 2 2 2 2 2 2 3
3 4 4 4 4 3 4 4 3 3 3 3 4 4 4 3 3 4 4 4 4 3 3 2 1 1 1 1 1 2 2 2 2 2 3 3 2 2 2 3 2 2 2
4 4 4 4 4 3 3 3 3 3 3 3 2 3 3 2 2 3 3 3 4 4 3 2 2 1 1 2 3 3 3 4 4 4 4 4 3 3 3 3 2 2 2
5 5 5 4 4 3 3 3 3 3 3 2 2 2 2 1 1 2 2 3 3 3 3 1 1 0 1 2 2 3 4 4 4 5 5 5 4 4 4 4 4 4 5
5 5 4 4 4 3 3 3 3 3 3 3 2 2 1 1 1 1 2 2 2 3 3 3 1 1 1 2 2 2 3 4 4 5 5 5 5 5 5 5 5 6 6
4 4 4 4 4 3 3 3 3 3 3 3 3 3 2 2 2 1 2 2 2 2 2 3 2 1 1 2 2 2 3 2 3 4 5 6 6 6 6 6 6 7 7
4 4 4 4 3 4 3 3 3 3 3 3 3 3 3 3 3 2 2 2 2 2 3 3 2 1 1 2 2 2 1 1 1 2 4 4 5 6 6 6 7 7 7
4 4 3 3 3 3 3 4 4 4 3 3 3 2 2 3 3 3 2 2 3 3 3 3 3 2 2 2 2 2 2 1 1 1 1 2 2 3 3 4 5 6 7
4 4 4 3 3 2 3 5 4 4 4 4 3 2 2 2 2 3 3 4 4 4 4 3 3 3 3 3 3 3 3 2 1 1 1 0 1 1 1 2 3 5 6
5 4 4 4 3 3 4 5 4 3 3 3 3 2 2 1 1 2 3 3 3 3 4 4 4 4 4 4 5 5 4 2 2 2 2 1 0 1 1 1 3 4 5
5 5 4 4 4 4 5 5 5 3 3 3 3 3 3 2 2 3 3 3 2 2 2 2 3 3 3 4 5 4 4 3 2 1 2 2 1 1 1 2 3 4 4
4 4 4 5 5 5 6 6 5 3 2 1 1 2 2 2 3 5 4 3 2 1 2 3 3 3 3 5 7 5 4 3 2 2 2 2 1 1 1 1 3 5 5
5 4 4 4 5 4 5 6 6 3 3 2 1 1 2 2 3 5 4 3 2 1 1 2 2 2 3 4 7 5 5 4 2 2 3 3 2 2 1 1 2 4 5
Wind_Direction
154 149 135 117 120 123 117 107 102 97 89 81 139 158 165 181 188 196 207 213 211 208 207 204 202 200 202 202 202 201 200 198 199 199 202 205 206 206 207 207 204 204 203
179 169 166 167 174 165 158 138 132 114 115 124 133 157 176 194 203 205 213 221 219 214 213 213 212 210 209 208 208 206 208 207 206 206 209 213 216 214 215 215 214 214 213
189 178 174 187 205 182 162 150 136 108 125 124 129 151 180 204 210 213 215 219 224 221 220 219 219 218 217 216 214 213 214 214 213 210 211 213 215 217 219 220 221 221 221
194 178 176 197 193 171 164 157 147 118 80 125 147 270 234 224 224 222 221 224 229 228 224 223 224 223 221 222 220 219 220 219 219 218 219 218 220 221 223 225 227 226 226
196 186 187 192 178 166 170 177 154 154 172 183 219 265 264 248 237 226 222 227 232 231 227 227 228 227 227 227 226 225 224 222 222 223 224 225 226 227 227 228 229 229 228
198 189 190 191 177 168 178 169 164 156 170 173 179 351 313 277 258 231 229 226 224 224 227 231 228 228 229 233 235 232 229 227 224 226 228 229 229 229 229 228 229 231 232
196 187 191 183 180 185 192 176 162 162 174 149 113 14 354 350 283 251 235 228 229 225 226 232 227 230 235 239 238 235 235 235 234 233 233 233 233 230 230 229 228 231 232
200 198 189 191 189 185 184 181 167 163 186 173 152 124 331 338 359 310 252 231 232 223 226 232 227 229 233 235 237 235 238 239 240 240 239 237 234 232 232 231 230 232 233
205 199 192 190 191 187 196 197 184 179 194 202 181 164 176 231 285 318 287 251 238 231 238 237 232 232 232 232 239 241 241 241 244 246 243 239 235 233 232 232 232 233 234
208 205 198 194 196 195 201 207 197 191 183 205 204 207 199 177 186 270 298 274 256 246 244 244 242 235 229 230 234 237 240 243 248 250 249 242 236 233 231 233 235 234 236
216 210 202 196 203 206 207 205 198 197 195 200 199 193 196 194 194 205 255 271 278 256 247 242 240 237 234 231 235 241 244 245 249 251 253 249 243 236 233 233 236 239 239
226 214 208 202 203 207 212 211 207 205 206 206 205 198 191 189 198 198 226 251 266 270 262 252 241 236 238 236 239 245 243 243 244 248 255 253 240 237 236 235 237 240 239
222 220 213 210 209 213 211 204 208 216 214 211 211 215 213 216 196 189 203 229 247 266 284 273 250 231 235 227 242 247 238 229 226 229 234 226 213 222 230 229 232 233 230
220 214 206 211 213 209 207 199 210 218 216 217 220 215 218 222 208 197 190 189 223 241 247 259 290 233 207 212 234 232 213 179 169 165 169 170 166 168 170 173 175 182 197
217 205 201 206 215 209 198 192 207 217 215 217 219 219 223 228 217 213 202 197 200 224 240 224 229 235 180 137 152 148 138 126 113 107 111 112 118 127 138 146 149 145 149
209 200 204 204 208 209 201 195 200 207 204 219 221 220 222 222 215 212 210 212 211 210 225 214 217 213 161 119 99 104 106 101 90 88 88 86 96 109 116 119 124 117 129
201 200 204 199 204 212 208 197 207 197 195 207 209 201 206 190 202 206 202 201 202 195 216 232 188 128 122 114 92 88 90 91 87 88 87 85 93 106 114 116 114 117 122
203 200 196 196 205 208 199 194 198 191 191 199 205 189 205 197 203 209 201 202 198 190 195 212 193 173 143 136 110 92 83 87 88 86 89 87 90 100 109 113 114 117 119
196 189 187 195 199 195 191 193 191 193 196 198 197 194 201 185 209 216 204 197 190 182 183 186 188 164 137 125 111 95 83 73 81 80 84 83 85 87 94 103 109 111 112
189 187 187 190 192 191 193 195 196 195 196 198 197 198 200 202 209 207 200 196 182 169 163 167 163 148 132 121 133 135 108 74 67 71 74 75 80 83 87 96 102 106 111
191 184 176 180 183 188 199 199 201 197 195 196 201 210 218 214 197 189 187 185 171 164 161 161 158 147 153 160 173 162 162 126 85 82 86 66 76 77 76 92 103 105 108
184 173 183 189 189 204 209 197 192 194 197 200 206 215 226 224 204 180 170 160 158 169 179 177 179 184 193 186 165 160 161 160 193 182 160 121 113 96 88 105 109 116 116
183 180 189 193 202 215 208 204 195 187 197 207 209 211 221 203 154 136 134 129 126 148 174 178 186 198 194 188 172 172 180 183 196 170 161 179 163 197 210 152 138 134 133
184 191 195 196 203 215 203 202 190 176 188 201 203 204 197 183 161 146 134 119 105 96 134 165 186 196 196 184 181 174 165 150 119 127 164 182 183 203 201 195 175 164 157
190 190 187 191 201 210 201 195 181 172 177 182 175 179 178 177 169 151 141 139 130 97 85 112 130 138 141 152 157 145 147 152 180 195 180 186 180 192 211 214 203 194 187
200 194 191 192 197 206 198 189 184 175 180 185 172 164 172 183 172 158 158 159 167 192 139 108 96 96 122 146 159 169 172 171 170 198 183 179 170 165 210 215 213 212 210
Height
1552 1553 1554 1555 1556 1557 1558 1560 1561 1562 1563 1564 1565 1566 1566 1567 1567 1568 1569 1569 1570 1570 1571 1572 1572 1573 1574 1575 1576 1577 1578 1579 1580 1581 1582 1583 1584 1585 1586 1587 1587 1588 1589
1553 1554 1555 1556 1557 1558 1559 1560 1561 1563 1563 1564 1565 1566 1566 1567 1567 1568 1568 1569 1569 1570 1570 1571 1572 1572 1573 1574 1575 1576 1577 1578 1579 1580 1581 1582 1583 1583 1584 1585 1586 1586 1587
1554 1555 1556 1557 1558 1559 1560 1561 1561 1563 1563 1564 1565 1565 1566 1566 1567 1567 1568 1568 1569 1569 1570 1570 1571 1571 1572 1573 1573 1574 1575 1576 1577 1578 1579 1580 1581 1581 1582 1583 1584 1584 1585
1554 1555 1556 1557 1558 1559 1560 1561 1561 1562 1563 1564 1564 1565 1565 1566 1566 1567 1567 1567 1568 1568 1568 1569 1570 1570 1571 1571 1572 1572 1573 1574 1575 1576 1577 1578 1578 1579 1580 1581 1581 1582 1582
1554 1555 1556 1557 1558 1559 1560 1560 1561 1562 1563 1563 1564 1564 1564 1565 1565 1565 1566 1566 1566 1567 1567 1568 1568 1569 1569 1570 1570 1570 1571 1572 1573 1573 1574 1575 1576 1576 1577 1578 1578 1579 1580
1553 1554 1555 1556 1557 1558 1559 1560 1561 1561 1562 1562 1563 1563 1563 1563 1564 1564 1564 1564 1564 1565 1565 1566 1566 1567 1567 1567 1568 1568 1569 1569 1570 1571 1571 1572 1572 1573 1574 1575 1575 1576 1576
1553 1553 1554 1555 1556 1557 1558 1559 1560 1560 1561 1561 1562 1562 1562 1562 1561 1561 1562 1562 1562 1563 1563 1564 1564 1564 1564 1565 1565 1566 1566 1567 1567 1568 1568 1569 1569 1570 1570 1571 1572 1572 1573
1552 1552 1553 1554 1555 1556 1556 1557 1558 1559 1559 1560 1560 1560 1560 1560 1559 1559 1560 1560 1560 1560 1561 1561 1562 1562 1562 1562 1562 1563 1563 1564 1564 1564 1565 1565 1566 1566 1567 1567 1568 1569 1570
1550 1551 1552 1553 1553 1554 1555 1556 1556 1557 1557 1558 1558 1559 1559 1558 1558 1558 1558 1558 1558 1558 1559 1559 1559 1559 1559 1559 1559 1560 1560 1560 1560 1561 1561 1561 1561 1562 1563 1564 1564 1565 1566
1549 1550 1550 1551 1552 1553 1553 1554 1554 1555 1555 1555 1556 1556 1557 1557 1557 1556 1556 1556 1556 1556 1556 1556 1556 1556 1556 1556 1556 1557 1557 1557 1557 1557 1557 1557 1557 1558 1559 1559 1560 1561 1562
1547 1548 1549 1550 1550 1550 1551 1551 1552 1552 1553 1553 1553 1553 1554 1554 1554 1554 1553 1553 1553 1553 1553 1553 1553 1553 1553 1553 1553 1553 1553 1553 1553 1553 1553 1553 1553 1553 1554 1555 1556 1557 1557
1546 1546 1547 1548 1548 1548 1549 1549 1549 1550 1550 1550 1550 1551 1551 1551 1551 1551 1551 1550 1550 1550 1550 1550 1550 1550 1550 1550 1550 1550 1550 1550 1550 1549 1549 1549 1549 1549 1550 1551 1552 1552 1553
1544 1544 1545 1546 1546 1546 1546 1547 1547 1547 1547 1547 1547 1548 1548 1548 1548 1548 1548 1548 1547 1547 1547 1547 1547 1547 1547 1547 1547 1547 1547 1546 1546 1546 1546 1546 1546 1546 1547 1547 1548 1548 1549
1541 1542 1543 1543 1544 1544 1544 1544 1544 1544 1544 1545 1545 1545 1545 1545 1545 1545 1545 1545 1544 1544 1544 1544 1544 1544 1544 1544 1544 1544 1543 1543 1543 1543 1542 1543 1543 1543 1544 1544 1544 1545 1545
1540 1540 1541 1541 1541 1541 1541 1542 1541 1542 1542 1542 1542 1541 1541 1541 1541 1541 1541 1542 1542 1541 1541 1541 1541 1541 1541 1541 1541 1541 1541 1540 1540 1540 1540 1540 1540 1540 1541 1541 1541 1541 1542
1537 1538 1538 1539 1539 1539 1539 1539 1539 1539 1539 1538 1538 1538 1537 1537 1537 1538 1538 1538 1538 1539 1538 1537 1538 1538 1538 1538 1538 1538 1538 1538 1538 1538 1537 1537 1537 1537 1538 1538 1538 1538 1538
1535 1535 1536 1536 1536 1537 1536 1536 1536 1536 1536 1536 1535 1535 1535 1534 1534 1534 1534 1534 1534 1535 1534 1534 1534 1535 1535 1536 1536 1536 1536 1536 1535 1535 1535 1535 1535 1535 1535 1535 1535 1535 1535
1532 1533 1533 1534 1534 1534 1534 1534 1533 1533 1533 1533 1532 1532 1532 1532 1531 1531 1531 1531 1531 1531 1531 1531 1531 1532 1532 1533 1533 1534 1534 1534 1534 1533 1533 1533 1533 1533 1533 1533 1533 1533 1533
1529 1530 1530 1531 1531 1531 1531 1531 1531 1531 1530 1530 1530 1529 1529 1529 1529 1528 1528 1527 1527 1528 1528 1528 1528 1529 1529 1530 1531 1531 1532 1532 1532 1532 1532 1531 1531 1531 1531 1531 1531 1530 1531
1527 1527 1528 1528 1528 1528 1528 1528 1528 1528 1528 1528 1527 1527 1527 1527 1526 1526 1525 1525 1525 1525 1525 1525 1525 1526 1526 1527 1528 1529 1529 1530 1530 1530 1530 1530 1530 1530 1529 1529 1529 1529 1529
1524 1525 1525 1525 1525 1525 1525 1525 1526 1526 1525 1525 1525 1525 1525 1524 1524 1524 1523 1523 1523 1523 1523 1523 1523 1523 1524 1524 1525 1526 1527 1528 1528 1528 1528 1528 1528 1528 1528 1527 1527 1527 1527
1521 1522 1523 1523 1523 1523 1523 1523 1523 1523 1523 1523 1522 1522 1522 1522 1522 1521 1521 1521 1521 1521 1521 1521 1520 1521 1521 1522 1523 1524 1525 1525 1525 1527 1526 1526 1526 1526 1526 1526 1526 1525 1525
1517 1518 1519 1519 1520 1520 1521 1521 1520 1520 1520 1520 1520 1520 1520 1520 1519 1519 1519 1519 1518 1518 1519 1519 1519 1519 1519 1520 1521 1521 1522 1523 1523 1524 1524 1523 1524 1524 1524 1524 1524 1524 1523
1514 1514 1514 1516 1516 1517 1517 1518 1517 1518 1518 1518 1517 1517 1518 1518 1517 1517 1517 1516 1516 1516 1516 1516 1517 1517 1517 1518 1518 1519 1520 1520 1520 1521 1521 1521 1521 1522 1522 1522 1522 1521 1521
1510 1510 1511 1511 1512 1513 1513 1514 1515 1515 1515 1515 1515 1515 1516 1515 1515 1515 1515 1514 1514 1514 1514 1514 1515 1515 1515 1515 1516 1516 1517 1517 1517 1518 1518 1519 1519 1519 1519 1519 1519 1519 1519
1507 1507 1507 1507 1508 1509 1510 1510 1512 1512 1512 1512 1512 1512 1513 1513 1513 1513 1513 1512 1512 1512 1512 1512 1513 1513 1513 1513 1513 1514 1514 1514 1514 1515 1515 1516 1516 1516 1516 1517 1517 1517 1517